Time,TemperatureF,DewpointF,PressureIn,WindDirection,WindDirectionDegrees,WindSpeedMPH,WindSpeedGustMPH,Humidity,HourlyPrecipIn,Conditions,Clouds,dailyrainin,SoftwareType,DateUTC
2013-08-17 00:00:00,66.0,63.0,30.07,NNE,15,0.0,0.0,90,0.00,,,0.00,weatherlink.com 1.10,2013-08-17 05:00:00,
2013-08-17 00:15:00,65.8,63.0,30.08,NNE,15,0.0,0.0,90,0.00,,,0.00,weatherlink.com 1.10,2013-08-17 05:15:00,
2013-08-17 00:31:00,65.6,62.0,30.08,NNE,15,0.0,0.0,89,0.00,,,0.00,weatherlink.com 1.10,2013-08-17 05:31:00,
2013-08-17 00:46:00,65.3,62.0,30.08,NNE,15,0.0,0.0,90,0.00,,,0.00,weatherlink.com 1.10,2013-08-17 05:46:00,
2013-08-17 01:01:00,65.1,62.0,30.08,NNE,15,0.0,0.0,90,0.00,,,0.00,weatherlink.com 1.10,2013-08-17 06:01:00,
2013-08-17 01:16:00,64.9,62.0,30.07,NNE,15,0.0,0.0,90,0.00,,,0.00,weatherlink.com 1.10,2013-08-17 06:16:00,
2013-08-17 01:31:00,64.7,62.0,30.07,NNE,15,0.0,0.0,91,0.00,,,0.00,weatherlink.com 1.10,2013-08-17 06:31:00,
2013-08-17 01:46:00,64.5,62.0,30.07,NNE,15,0.0,0.0,91,0.00,,,0.00,weatherlink.com 1.10,2013-08-17 06:46:00,
2013-08-17 02:01:00,64.4,62.0,30.07,NNE,15,0.0,0.0,91,0.00,,,0.00,weatherlink.com 1.10,2013-08-17 07:01:00,
2013-08-17 02:16:00,64.3,62.0,30.06,NNE,15,0.0,0.0,91,0.00,,,0.00,weatherlink.com 1.10,2013-08-17 07:16:00,
2013-08-17 02:31:00,64.1,62.0,30.06,NNE,15,0.0,0.0,91,0.00,,,0.00,weatherlink.com 1.10,2013-08-17 07:31:00,
2013-08-17 02:46:00,64.1,62.0,30.06,NNE,15,0.0,0.0,92,0.00,,,0.00,weatherlink.com 1.10,2013-08-17 07:46:00,
2013-08-17 03:01:00,64.1,62.0,30.06,NNE,15,0.0,0.0,92,0.00,,,0.00,weatherlink.com 1.10,2013-08-17 08:01:00,
2013-08-17 03:16:00,64.2,62.0,30.06,NNE,15,0.0,0.0,92,0.00,,,0.00,weatherlink.com 1.10,2013-08-17 08:16:00,
2013-08-17 03:31:00,64.2,62.0,30.06,NNE,15,0.0,0.0,92,0.00,,,0.00,weatherlink.com 1.10,2013-08-17 08:31:00,
2013-08-17 03:46:00,64.2,62.0,30.06,NNE,15,0.0,0.0,92,0.00,,,0.00,weatherlink.com 1.10,2013-08-17 08:46:00,
2013-08-17 04:01:00,64.1,62.0,30.05,NNE,15,0.0,0.0,92,0.00,,,0.00,weatherlink.com 1.10,2013-08-17 09:01:00,
2013-08-17 04:16:00,64.1,62.0,30.05,NNE,15,0.0,0.0,92,0.00,,,0.00,weatherlink.com 1.10,2013-08-17 09:16:00,
2013-08-17 04:31:00,64.0,62.0,30.05,NNE,15,0.0,0.0,92,0.00,,,0.00,weatherlink.com 1.10,2013-08-17 09:31:00,
2013-08-17 04:46:00,64.1,62.0,30.05,NNE,15,0.0,1.0,91,0.00,,,0.00,weatherlink.com 1.10,2013-08-17 09:46:00,
2013-08-17 05:01:00,64.3,62.0,30.05,NNE,15,0.0,0.0,91,0.00,,,0.00,weatherlink.com 1.10,2013-08-17 10:01:00,
2013-08-17 05:16:00,64.5,62.0,30.06,NNE,15,0.0,0.0,91,0.00,,,0.00,weatherlink.com 1.10,2013-08-17 10:16:00,
2013-08-17 05:31:00,64.6,61.0,30.06,NNE,15,0.0,1.0,89,0.00,,,0.00,weatherlink.com 1.10,2013-08-17 10:31:00,
2013-08-17 05:46:00,64.8,62.0,30.06,NNE,15,0.0,1.0,89,0.00,,,0.00,weatherlink.com 1.10,2013-08-17 10:46:00,
2013-08-17 06:01:00,64.9,62.0,30.07,NNE,15,0.0,0.0,89,0.00,,,0.00,weatherlink.com 1.10,2013-08-17 11:01:00,
2013-08-17 06:16:00,64.7,62.0,30.07,NNE,15,0.0,0.0,90,0.00,,,0.00,weatherlink.com 1.10,2013-08-17 11:16:00,
2013-08-17 06:31:00,64.7,62.0,30.08,NNE,15,0.0,1.0,90,0.00,,,0.00,weatherlink.com 1.10,2013-08-17 11:31:00,
2013-08-17 06:46:00,64.9,62.0,30.09,NE,44,0.0,3.0,91,0.00,,,0.00,weatherlink.com 1.10,2013-08-17 11:46:00,
2013-08-17 07:01:00,64.3,62.0,30.08,East,79,4.0,11.0,91,0.10,,,0.10,weatherlink.com 1.10,2013-08-17 12:01:00,
2013-08-17 07:16:00,63.4,61.0,30.08,NE,42,0.0,8.0,92,0.35,,,0.35,weatherlink.com 1.10,2013-08-17 12:16:00,
2013-08-17 07:31:00,63.1,61.0,30.09,NE,42,0.0,1.0,93,0.45,,,0.45,weatherlink.com 1.10,2013-08-17 12:31:00,
2013-08-17 07:46:00,63.1,61.0,30.09,NE,42,0.0,1.0,93,0.47,,,0.47,weatherlink.com 1.10,2013-08-17 12:46:00,
2013-08-17 08:01:00,63.2,62.0,30.10,NE,42,0.0,1.0,94,0.40,,,0.50,weatherlink.com 1.10,2013-08-17 13:01:00,
2013-08-17 08:16:00,63.3,62.0,30.10,NE,42,1.0,1.0,94,0.16,,,0.52,weatherlink.com 1.10,2013-08-17 13:16:00,
2013-08-17 08:31:00,63.6,62.0,30.09,North,360,0.0,1.0,94,0.10,,,0.55,weatherlink.com 1.10,2013-08-17 13:31:00,
2013-08-17 08:46:00,63.8,62.0,30.09,WSW,255,0.0,1.0,94,0.12,,,0.59,weatherlink.com 1.10,2013-08-17 13:46:00,
2013-08-17 09:01:00,64.2,63.0,30.10,WSW,255,0.0,1.0,95,0.11,,,0.61,weatherlink.com 1.10,2013-08-17 14:01:00,
2013-08-17 09:16:00,64.8,63.0,30.11,NNE,26,0.0,2.0,95,0.09,,,0.61,weatherlink.com 1.10,2013-08-17 14:16:00,
2013-08-17 09:31:00,65.3,64.0,30.12,WNW,303,1.0,4.0,95,0.07,,,0.62,weatherlink.com 1.10,2013-08-17 14:31:00,
2013-08-17 09:46:00,65.6,64.0,30.13,North,9,0.0,7.0,94,0.03,,,0.62,weatherlink.com 1.10,2013-08-17 14:46:00,
2013-08-17 10:01:00,65.6,64.0,30.13,NE,43,0.0,5.0,94,0.01,,,0.62,weatherlink.com 1.10,2013-08-17 15:01:00,
2013-08-17 10:16:00,65.7,64.0,30.13,NNE,23,0.0,4.0,94,0.01,,,0.62,weatherlink.com 1.10,2013-08-17 15:16:00,
2013-08-17 10:31:00,66.1,64.0,30.13,NNE,32,0.0,3.0,93,0.00,,,0.62,weatherlink.com 1.10,2013-08-17 15:31:00,
2013-08-17 10:46:00,66.6,65.0,30.14,ENE,63,2.0,5.0,93,0.00,,,0.62,weatherlink.com 1.10,2013-08-17 15:46:00,
2013-08-17 11:01:00,66.7,64.0,30.13,NNE,26,1.0,6.0,92,0.00,,,0.62,weatherlink.com 1.10,2013-08-17 16:01:00,
2013-08-17 11:16:00,67.2,65.0,30.12,NNW,341,0.0,5.0,92,0.00,,,0.62,weatherlink.com 1.10,2013-08-17 16:16:00,
2013-08-17 11:31:00,67.7,66.0,30.11,NNE,23,2.0,8.0,93,0.00,,,0.62,weatherlink.com 1.10,2013-08-17 16:31:00,
2013-08-17 11:47:00,68.2,65.0,30.11,ENE,78,0.0,7.0,90,0.00,,,0.62,weatherlink.com 1.10,2013-08-17 16:47:00,
2013-08-17 12:02:00,68.4,66.0,30.10,NNE,33,7.0,8.0,91,0.00,,,0.62,weatherlink.com 1.10,2013-08-17 17:02:00,
2013-08-17 12:17:00,69.0,66.0,30.09,East,90,2.0,6.0,91,0.00,,,0.62,weatherlink.com 1.10,2013-08-17 17:17:00,
2013-08-17 12:32:00,69.7,67.0,30.08,NE,46,4.0,5.0,90,0.00,,,0.62,weatherlink.com 1.10,2013-08-17 17:32:00,
2013-08-17 12:47:00,70.4,67.0,30.08,NE,43,4.0,8.0,89,0.00,,,0.62,weatherlink.com 1.10,2013-08-17 17:47:00,
2013-08-17 13:02:00,71.1,67.0,30.07,NE,52,0.0,4.0,87,0.00,,,0.62,weatherlink.com 1.10,2013-08-17 18:02:00,
2013-08-17 13:17:00,71.7,68.0,30.07,NE,49,5.0,6.0,88,0.00,,,0.62,weatherlink.com 1.10,2013-08-17 18:17:00,
2013-08-17 13:32:00,72.5,68.0,30.07,ENE,59,0.0,8.0,86,0.00,,,0.62,weatherlink.com 1.10,2013-08-17 18:32:00,
2013-08-17 13:47:00,73.6,69.0,30.07,ENE,57,1.0,8.0,84,0.00,,,0.62,weatherlink.com 1.10,2013-08-17 18:47:00,
2013-08-17 14:02:00,74.0,68.0,30.06,NNE,20,0.0,8.0,82,0.00,,,0.62,weatherlink.com 1.10,2013-08-17 19:02:00,
2013-08-17 14:17:00,74.4,69.0,30.06,North,359,0.0,4.0,83,0.00,,,0.62,weatherlink.com 1.10,2013-08-17 19:17:00,
2013-08-17 14:32:00,74.6,68.0,30.05,East,86,0.0,5.0,81,0.00,,,0.62,weatherlink.com 1.10,2013-08-17 19:32:00,
2013-08-17 14:47:00,74.8,68.0,30.05,NNE,24,0.0,2.0,79,0.00,,,0.62,weatherlink.com 1.10,2013-08-17 19:47:00,
2013-08-17 15:02:00,75.2,68.0,30.04,ENE,59,1.0,6.0,79,0.00,,,0.62,weatherlink.com 1.10,2013-08-17 20:02:00,
2013-08-17 15:17:00,74.4,69.0,30.05,NNW,328,0.0,1.0,83,0.00,,,0.62,weatherlink.com 1.10,2013-08-17 20:17:00,
2013-08-17 15:32:00,74.0,68.0,30.05,NW,325,0.0,4.0,81,0.00,,,0.62,weatherlink.com 1.10,2013-08-17 20:32:00,
2013-08-17 15:47:00,74.0,69.0,30.04,NNE,21,0.0,2.0,83,0.00,,,0.62,weatherlink.com 1.10,2013-08-17 20:47:00,
2013-08-17 16:02:00,74.1,69.0,30.05,NNE,21,0.0,1.0,84,0.00,,,0.62,weatherlink.com 1.10,2013-08-17 21:02:00,
2013-08-17 16:17:00,73.7,68.0,30.04,NW,305,0.0,2.0,83,0.00,,,0.62,weatherlink.com 1.10,2013-08-17 21:17:00,
2013-08-17 16:32:00,73.1,68.0,30.05,SW,231,3.0,4.0,83,0.00,,,0.62,weatherlink.com 1.10,2013-08-17 21:32:00,
2013-08-17 16:47:00,72.1,68.0,30.05,SW,222,2.0,5.0,86,0.00,,,0.62,weatherlink.com 1.10,2013-08-17 21:47:00,
2013-08-17 17:02:00,71.6,67.0,30.05,SSW,207,1.0,5.0,85,0.00,,,0.62,weatherlink.com 1.10,2013-08-17 22:02:00,
2013-08-17 17:17:00,71.7,67.0,30.05,WSW,256,0.0,4.0,85,0.00,,,0.62,weatherlink.com 1.10,2013-08-17 22:17:00,
2013-08-17 17:32:00,72.1,67.0,30.05,WNW,298,0.0,4.0,85,0.00,,,0.62,weatherlink.com 1.10,2013-08-17 22:32:00,
2013-08-17 17:47:00,72.4,68.0,30.05,West,277,0.0,3.0,85,0.00,,,0.62,weatherlink.com 1.10,2013-08-17 22:47:00,
2013-08-17 18:02:00,71.9,68.0,30.06,NW,316,1.0,5.0,86,0.00,,,0.62,weatherlink.com 1.10,2013-08-17 23:02:00,
2013-08-17 18:17:00,70.9,67.0,30.05,West,278,1.0,3.0,87,0.01,,,0.63,weatherlink.com 1.10,2013-08-17 23:17:00,
2013-08-17 18:32:00,69.7,67.0,30.06,West,276,0.0,6.0,90,0.07,,,0.69,weatherlink.com 1.10,2013-08-17 23:32:00,
2013-08-17 18:47:00,68.7,66.0,30.06,NNE,23,0.0,5.0,91,0.09,,,0.71,weatherlink.com 1.10,2013-08-17 23:47:00,
2013-08-17 19:02:00,67.8,65.0,30.07,North,355,0.0,4.0,91,0.11,,,0.73,weatherlink.com 1.10,2013-08-18 00:02:00,
2013-08-17 19:17:00,67.3,65.0,30.07,WNW,286,0.0,3.0,92,0.12,,,0.75,weatherlink.com 1.10,2013-08-18 00:17:00,
2013-08-17 19:32:00,67.2,65.0,30.07,NNE,15,3.0,3.0,93,0.10,,,0.79,weatherlink.com 1.10,2013-08-18 00:32:00,
2013-08-17 19:47:00,67.3,65.0,30.08,North,5,1.0,5.0,93,0.22,,,0.93,weatherlink.com 1.10,2013-08-18 00:47:00,
2013-08-17 20:02:00,67.2,65.0,30.07,WNW,298,1.0,9.0,93,0.44,,,1.17,weatherlink.com 1.10,2013-08-18 01:02:00,
2013-08-17 20:18:00,67.1,65.0,30.07,North,7,1.0,4.0,94,0.44,,,1.20,weatherlink.com 1.10,2013-08-18 01:18:00,
2013-08-17 20:32:00,67.1,65.0,30.07,North,5,0.0,3.0,94,0.39,,,1.20,weatherlink.com 1.10,2013-08-18 01:32:00,
2013-08-17 20:47:00,67.0,65.0,30.07,NNE,21,0.0,5.0,93,0.27,,,1.20,weatherlink.com 1.10,2013-08-18 01:47:00,
2013-08-17 21:02:00,66.8,65.0,30.06,NE,48,0.0,2.0,94,0.03,,,1.21,weatherlink.com 1.10,2013-08-18 02:02:00,
2013-08-17 21:17:00,66.7,65.0,30.07,NE,36,2.0,4.0,94,0.01,,,1.21,weatherlink.com 1.10,2013-08-18 02:17:00,
2013-08-17 21:32:00,66.5,65.0,30.07,NE,35,0.0,1.0,94,0.01,,,1.21,weatherlink.com 1.10,2013-08-18 02:32:00,
2013-08-17 21:47:00,66.4,65.0,30.07,NE,35,0.0,2.0,94,0.01,,,1.21,weatherlink.com 1.10,2013-08-18 02:47:00,
2013-08-17 22:02:00,66.3,65.0,30.07,NE,35,0.0,0.0,94,0.00,,,1.21,weatherlink.com 1.10,2013-08-18 03:02:00,
2013-08-17 22:17:00,66.3,65.0,30.07,NE,35,0.0,0.0,94,0.00,,,1.21,weatherlink.com 1.10,2013-08-18 03:17:00,
2013-08-17 22:32:00,66.5,65.0,30.07,NW,321,0.0,2.0,94,0.00,,,1.21,weatherlink.com 1.10,2013-08-18 03:32:00,
2013-08-17 22:47:00,66.4,65.0,30.07,NE,49,0.0,10.0,94,0.00,,,1.21,weatherlink.com 1.10,2013-08-18 03:47:00,
2013-08-17 23:02:00,66.2,65.0,30.07,NNW,336,0.0,6.0,94,0.00,,,1.21,weatherlink.com 1.10,2013-08-18 04:02:00,
2013-08-17 23:17:00,66.1,64.0,30.07,NE,51,0.0,4.0,94,0.00,,,1.21,weatherlink.com 1.10,2013-08-18 04:17:00,
2013-08-17 23:32:00,65.9,64.0,30.07,NE,43,0.0,3.0,94,0.00,,,1.21,weatherlink.com 1.10,2013-08-18 04:32:00,
2013-08-17 23:47:00,65.8,64.0,30.07,NE,43,0.0,1.0,94,0.00,,,1.21,weatherlink.com 1.10,2013-08-18 04:47:00,